Address 0xc22b73fc1e6e00e48e0931ed4a6f1543cf059159

 
 
Txn Hash Method
Block
From
To
Value [Txn Fee]
0x2277f2f09bad3892373507ddb248ebb11adf7f48c695c078a1e51e3cb4c85d3fTransfer115982232021-10-08 15:55:1014 days 3 hrs ago0xc22b73fc1e6e00e48e0931ed4a6f1543cf059159OUT Beta Finance: BETA Token0 BNB0.000110015
0xbfa1a6182edfba112ad18c15f6bdee336be9332f14482908caf16b02a59d8e6bTransfer115980042021-10-08 15:44:1314 days 3 hrs ago0xc22b73fc1e6e00e48e0931ed4a6f1543cf059159OUT PancakeSwap: CAKE Token0 BNB0.000105635
0x30b00f5809a6b29f79207c64613a7631220d93dd43576d0ed85cc6950cf690e2Withdraw115977112021-10-08 15:29:3414 days 3 hrs ago0xc22b73fc1e6e00e48e0931ed4a6f1543cf059159OUT 0x6f660c58723922c6f866a058199ff4881019b4b50 BNB0.000485322
0x6c864b523e2e5505cf52f09e5e5c40b8efb83913994d236f14495b02773e63a6Withdraw115976852021-10-08 15:28:1614 days 3 hrs ago0xc22b73fc1e6e00e48e0931ed4a6f1543cf059159OUT 0x6f660c58723922c6f866a058199ff4881019b4b50 BNB0.000816039
0x322a02e46e599cbeea1010ac7d7771894cdf26fb79f13624fd251cd694bc6729Withdraw115976722021-10-08 15:27:3714 days 3 hrs ago0xc22b73fc1e6e00e48e0931ed4a6f1543cf059159OUT 0x6f660c58723922c6f866a058199ff4881019b4b50 BNB0.000699462
0xf7018166e24b2d7730b394c1b77c425e48bbcb8ef66ecdcde44feecb7cba7e63Withdraw115976662021-10-08 15:27:1914 days 3 hrs ago0xc22b73fc1e6e00e48e0931ed4a6f1543cf059159OUT 0x6f660c58723922c6f866a058199ff4881019b4b50 BNB0.000699462
0x3957eeb98b021257cfebede1ef687d5bf1b0645d2ce61b138ff20cba618da21eDeposit115967762021-10-08 14:42:4914 days 4 hrs ago0xc22b73fc1e6e00e48e0931ed4a6f1543cf059159OUT 0x6f660c58723922c6f866a058199ff4881019b4b50 BNB0.000607368
0x703c568f66a3f1c798dfacbceb78b23ff38fa7460792876c2d3467e30179ba7eApprove115967702021-10-08 14:42:3114 days 4 hrs ago0xc22b73fc1e6e00e48e0931ed4a6f1543cf059159OUT PancakeSwap: CAKE Token0 BNB0.00022215
0x0b3dae53b29fd6099daa6cd71ce8b430c465206357665c82458a3916a278ca4eTransfer111997762021-09-24 17:42:0528 days 1 hr ago0xc22b73fc1e6e00e48e0931ed4a6f1543cf059159OUT PancakeSwap: CAKE Token0 BNB0.000105635
0x83b8b052c501e1bc89472150d2432912586d474e590d6a7a4f9b9dbd5957ec22Transfer111994152021-09-24 17:24:0128 days 1 hr ago0xc22b73fc1e6e00e48e0931ed4a6f1543cf059159OUT APENFT: NFT Token0 BNB0.000119355
0xa40229966f1d8b8054d1fe4671d98bc261895e2f3709321d6d6fe503f9ad5618Withdraw111994062021-09-24 17:23:3428 days 1 hr ago0xc22b73fc1e6e00e48e0931ed4a6f1543cf059159OUT 0x8d018823d13c56d62ffb795151a9e629c21e047b0 BNB0.000606348
0xae12823f62244f5d0a85fec778dc4bd431f4bf4e6e03c6b54f6d300fb7cca73bDeposit111360922021-09-22 12:20:0830 days 6 hrs ago0xc22b73fc1e6e00e48e0931ed4a6f1543cf059159OUT 0x8d018823d13c56d62ffb795151a9e629c21e047b0 BNB0.00061764
0x76035670fc40a7bf6d99aebff24fc6cf3f57509798fe3eee49a77dc5415fccb3Approve111360862021-09-22 12:19:5030 days 6 hrs ago0xc22b73fc1e6e00e48e0931ed4a6f1543cf059159OUT PancakeSwap: CAKE Token0 BNB0.00022215
0x1d0cd83660f2efa32f663992d2dcbb8b8b51e7c435f3239437b224c0562127f2Transfer105694782021-09-02 16:59:0250 days 2 hrs ago0xc22b73fc1e6e00e48e0931ed4a6f1543cf059159OUT Qubit Finance: QBT Token0 BNB0.000119855
0x1a35edc31b498073e11b41d8b75be2f36a6d072a6d210fef3122af91511fac92Transfer105688792021-09-02 16:28:5850 days 2 hrs ago0xc22b73fc1e6e00e48e0931ed4a6f1543cf059159OUT PancakeSwap: CAKE Token0 BNB0.000105635
0xac7755dfb7bdcc12b76d282096dc686befa7c64530761d1d0b3737cfb93d90ffWithdraw105677592021-09-02 15:31:3850 days 3 hrs ago0xc22b73fc1e6e00e48e0931ed4a6f1543cf059159OUT 0xb72def58d0832f747d6b7197471fe20aea7eb4630 BNB0.000606804
0x17b1d3bef200d6f0e5a58de329493ef3231502f86348e36b7916b5c767df35d7Deposit105107972021-08-31 15:25:4652 days 3 hrs ago0xc22b73fc1e6e00e48e0931ed4a6f1543cf059159OUT 0xb72def58d0832f747d6b7197471fe20aea7eb4630 BNB0.00061764
0xcbef16cc4a3dfe6fffa693469c60ad16da32eed72ef23ccf65965384986be8c9Approve105107892021-08-31 15:25:2252 days 3 hrs ago0xc22b73fc1e6e00e48e0931ed4a6f1543cf059159OUT PancakeSwap: CAKE Token0 BNB0.00026658
0x194190f4752281ea1a34414cfe04739666fd3d124ef3129a8c93d9100b03e1ebTransfer101329502021-08-18 9:26:1265 days 9 hrs ago0xc22b73fc1e6e00e48e0931ed4a6f1543cf059159OUT PancakeSwap: CAKE Token0 BNB0.000105635
0x98d772222294a97912546e7045c008b93ea55024bacc029bb0457c9fa09ce524Transfer98606592021-08-08 19:07:3075 days 10 mins ago0xc22b73fc1e6e00e48e0931ed4a6f1543cf059159OUT TrueUSD: TUSD Token0 BNB0.000119415
0xb78308e54b43cec3709adb6cfdc63e4cc816f0cd528621865d4e55281476c69fTransfer98555822021-08-08 14:46:0875 days 4 hrs ago0xc22b73fc1e6e00e48e0931ed4a6f1543cf059159OUT PancakeSwap: CAKE Token0 BNB0.000105635
0xe94088fd1de81a789c0be76d72a6bc8ae97869f1e3c6bc438efba00053fb781aWithdraw98553932021-08-08 14:36:1675 days 4 hrs ago0xc22b73fc1e6e00e48e0931ed4a6f1543cf059159OUT 0xb6e510ae2da1ab4e350f837c70823ab75091780e0 BNB0.00050529
0xc7dae9e8339c92360fffa5a247622731cef550c8b9be089028e643a11a7e72f6Deposit97932842021-08-06 9:20:0377 days 9 hrs ago0xc22b73fc1e6e00e48e0931ed4a6f1543cf059159OUT 0xb6e510ae2da1ab4e350f837c70823ab75091780e0 BNB0.0005147
0x6eccbacdc52a8c13c1ed47d5e384ff8932b67bc7fec4cee76ca9b2c8942b1b56Approve97932762021-08-06 9:19:3977 days 9 hrs ago0xc22b73fc1e6e00e48e0931ed4a6f1543cf059159OUT PancakeSwap: CAKE Token0 BNB0.00022215
0xac3a1b504c06881161486223ee5f99f5b6dac1da094eeefa57224226b2fc715aTransfer97143452021-08-03 13:24:5480 days 5 hrs ago0xc22b73fc1e6e00e48e0931ed4a6f1543cf059159OUT BitTorrent: BTT Token0 BNB0.000119475
[ Download CSV Export 
Parent Txn Hash Block From To Value
Loading

Contract Name:
0 BNB

Compiler Version
0

Optimization Enabled:
0 BNB

Other Settings:
-NA-
Block Transaction Gas Used Reward
Age Block Fee Address BC Fee Address Voting Power Jailed Incoming
Block Uncle Number Difficulty Gas Used Reward
Loading
Loading
Make sure to use the "Vote Down" button for any spammy posts, and the "Vote Up" for interesting conversations.